sat.trackr.live / text

‹ back to catalog

STARLINK-38084

NORAD 69995 · 2026-159W

PAYLOAD ACTIVE UNKNOWN

§ Identity

Operator
Country
US
Launch date
2026-07-11
Launch site
AFWTR
Launch vehicle
Mass (kg)
RCS (m²)

Purposes: comms

External: N2YO · Heavens-Above · Gunter

§ Orbital elements

Epoch: 2026-09-20T04:04:37.714080Z

Period
92.95 min
Inclination
97.2854°
Eccentricity
0.0001669
Mean motion
15.49198158 rev/d
Perigee alt
417.9 km
Apogee alt
420.2 km
Semi-major
6,797.2 km
B*
5.7215e-4
RAAN
104.9473°
Arg perigee
90.0208°
Mean anomaly
270.1234°
Rev number
1,239

§ Raw data

STARLINK-380841 69995U 26159W   26263.16988095  .00031161  00000+0  57215-3 0  99902 69995  97.2854 104.9473 0001669  90.0208 270.1234 15.49198158 12399

JSON: /api/v1/satellites/69995 · /tle

For live sub-satellite position, see the globe view (requires WebGL).

§ Visibility from observer

Set your observer location to see the next 7 days of passes ≥ 10°. The values pass through the URL so the page stays shareable.

No JS? Fill the form by hand. The geolocation button needs JavaScript.